• In Italy
  • List of Countries
  • For 7 days
  • Water Temperature
  • Satellite Maps
  • Weather Map
  • Weather Widgets
  • user-avatar
    Login

    Hourly Weather Midlothian

    Today, 11 December, Monday

    Time Temperature Precipitation Wind Pressure Humidity
    00:00 -7°C° 0 mm 3 mps 714 mmHg 75%
    01:00 -6°C° 0 mm 3 mps 714 mmHg 75%
    02:00 -6°C° 0 mm 3 mps 715 mmHg 75%
    03:00 -6°C° 0 mm 3 mps 715 mmHg 75%
    04:00 -6°C° 0 mm 3 mps 715 mmHg 76%
    05:00 -6°C° 0 mm 3 mps 716 mmHg 78%
    06:00 -6°C° 0 mm 3 mps 716 mmHg 81%
    07:00 -6°C° 0 mm 3 mps 716 mmHg 84%
    08:00 -5°C° 0 mm 2 mps 717 mmHg 87%
    09:00 -5°C° 0 mm 2 mps 717 mmHg 90%
    10:00 -4°C° 0 mm 2 mps 718 mmHg 87%
    11:00 -3°C° 0 mm 2 mps 718 mmHg 84%
    12:00 -2°C° 0 mm 2 mps 718 mmHg 81%
    13:00 -2°C° 0 mm 2 mps 719 mmHg 83%
    14:00 -2°C° 0 mm 3 mps 720 mmHg 85%
    15:00 -2°C° 0 mm 3 mps 720 mmHg 87%
    16:00 -4°C° 0 mm 3 mps 721 mmHg 88%
    17:00 -4°C° 0 mm 3 mps 722 mmHg 89%
    18:00 -4°C° 0 mm 3 mps 722 mmHg 90%
    19:00 -4°C° 0 mm 3 mps 723 mmHg 91%
    20:00 -4°C° 0 mm 3 mps 724 mmHg 91%
    21:00 -4°C° 0 mm 3 mps 724 mmHg 91%
    22:00 -4°C° 0 mm 3 mps 725 mmHg 91%
    23:00 -5°C° 0 mm 3 mps 725 mmHg 91%

    Tomorrow, 12 December, Tuesday

    Time Temperature Precipitation Wind Pressure Humidity
    00:00 -5°C° 0 mm 3 mps 726 mmHg 91%
    01:00 -5°C° 0 mm 3 mps 726 mmHg 91%
    02:00 -5°C° 0 mm 3 mps 726 mmHg 91%
    03:00 -5°C° 0 mm 3 mps 727 mmHg 90%
    04:00 -5°C° 0 mm 3 mps 727 mmHg 90%
    05:00 -5°C° 0 mm 3 mps 727 mmHg 90%
    06:00 -5°C° 0 mm 3 mps 727 mmHg 89%
    07:00 -5°C° 0 mm 3 mps 727 mmHg 89%
    08:00 -5°C° 0 mm 3 mps 728 mmHg 89%
    09:00 -5°C° 0 mm 3 mps 728 mmHg 89%
    10:00 -4°C° 0 mm 4 mps 728 mmHg 86%
    11:00 -3°C° 0 mm 4 mps 728 mmHg 83%
    12:00 -2°C° 0 mm 4 mps 728 mmHg 80%
    13:00 -2°C° 0 mm 4 mps 727 mmHg 84%
    14:00 -1°C° 0 mm 4 mps 727 mmHg 88%
    15:00 -1°C° 0 mm 5 mps 727 mmHg 91%
    16:00 -1°C° 0.2 mm 5 mps 726 mmHg 91%
    17:00 -2°C° 0.2 mm 6 mps 725 mmHg 90%
    18:00 -1°C° 0.2 mm 6 mps 724 mmHg 90%
    19:00 -1°C° 0.2 mm 7 mps 724 mmHg 91%
    20:00 0°C° 0.2 mm 7 mps 723 mmHg 92%
    21:00 0°C° 0.2 mm 7 mps 723 mmHg 93%
    22:00 0°C° 0 mm 7 mps 723 mmHg 92%
    23:00 -1°C° 0 mm 6 mps 723 mmHg 91%

    Day after tomorrow, 13 December, Wednesday

    Time Temperature Precipitation Wind Pressure Humidity
    00:00 -2°C° 0 mm 6 mps 723 mmHg 90%
    01:00 -1°C° 0 mm 5 mps 723 mmHg 91%
    02:00 -1°C° 0 mm 5 mps 723 mmHg 91%
    03:00 -1°C° 0 mm 5 mps 723 mmHg 92%
    04:00 -1°C° 0 mm 5 mps 722 mmHg 92%
    05:00 0°C° 0 mm 5 mps 721 mmHg 93%
    06:00 0°C° 0 mm 5 mps 720 mmHg 93%
    07:00 -1°C° 0.2 mm 6 mps 719 mmHg 93%
    08:00 0°C° 0.2 mm 7 mps 718 mmHg 92%
    09:00 0°C° 0.2 mm 8 mps 717 mmHg 92%
    10:00 0°C° 0.4 mm 8 mps 717 mmHg 89%
    11:00 0°C° 0.4 mm 8 mps 716 mmHg 86%
    12:00 0°C° 0.4 mm 7 mps 716 mmHg 83%
    13:00 -1°C° 0.1 mm 7 mps 715 mmHg 82%
    14:00 -1°C° 0.1 mm 7 mps 715 mmHg 81%
    15:00 -2°C° 0.1 mm 7 mps 715 mmHg 80%
    16:00 -2°C° 0.1 mm 7 mps 715 mmHg 80%
    17:00 -3°C° 0.1 mm 7 mps 714 mmHg 81%
    18:00 -3°C° 0.1 mm 7 mps 714 mmHg 81%
    19:00 -4°C° 0 mm 7 mps 714 mmHg 80%
    20:00 -4°C° 0 mm 7 mps 714 mmHg 80%
    21:00 -4°C° 0 mm 7 mps 714 mmHg 79%
    22:00 -4°C° 0 mm 7 mps 714 mmHg 80%
    23:00 -4°C° 0 mm 7 mps 714 mmHg 82%

    14 December, Thursday

    Time Temperature Precipitation Wind Pressure Humidity
    00:00 -4°C° 0 mm 7 mps 714 mmHg 83%
    01:00 -4°C° 0.1 mm 7 mps 714 mmHg 83%
    02:00 -3°C° 0.1 mm 7 mps 714 mmHg 84%
    03:00 -3°C° 0.1 mm 7 mps 714 mmHg 84%
    04:00 -3°C° 0.1 mm 7 mps 713 mmHg 84%
    05:00 -3°C° 0.1 mm 7 mps 713 mmHg 84%
    06:00 -3°C° 0.1 mm 7 mps 713 mmHg 84%
    07:00 -3°C° 0 mm 6 mps 713 mmHg 85%
    08:00 -3°C° 0 mm 6 mps 713 mmHg 86%
    09:00 -3°C° 0 mm 6 mps 713 mmHg 88%
    10:00 -2°C° 0 mm 6 mps 713 mmHg 86%
    11:00 -2°C° 0 mm 6 mps 713 mmHg 85%
    12:00 -1°C° 0 mm 6 mps 713 mmHg 84%
    13:00 -2°C° 0 mm 6 mps 712 mmHg 86%
    14:00 -1°C° 0 mm 5 mps 712 mmHg 87%
    15:00 -1°C° 0 mm 5 mps 712 mmHg 89%
    16:00 -2°C° 0 mm 4 mps 712 mmHg 90%
    17:00 -1°C° 0 mm 3 mps 712 mmHg 91%
    18:00 -2°C° 0 mm 2 mps 712 mmHg 92%
    19:00 -2°C° 0 mm 2 mps 712 mmHg 91%
    20:00 -2°C° 0 mm 2 mps 713 mmHg 91%
    21:00 -2°C° 0 mm 3 mps 713 mmHg 91%
    22:00 -2°C° 0.1 mm 3 mps 714 mmHg 91%
    23:00 -2°C° 0.1 mm 3 mps 715 mmHg 91%

    15 December, Friday

    Time Temperature Precipitation Wind Pressure Humidity
    00:00 -2°C° 0.1 mm 3 mps 716 mmHg 91%
    01:00 -3°C° 0 mm 4 mps 717 mmHg 90%
    02:00 -4°C° 0 mm 5 mps 718 mmHg 88%
    03:00 -4°C° 0 mm 6 mps 719 mmHg 87%
    04:00 -4°C° 0 mm 6 mps 720 mmHg 86%
    05:00 -4°C° 0 mm 6 mps 721 mmHg 86%
    06:00 -4°C° 0 mm 5 mps 722 mmHg 85%
    07:00 -4°C° 0 mm 5 mps 722 mmHg 84%
    08:00 -5°C° 0 mm 5 mps 723 mmHg 84%
    09:00 -5°C° 0 mm 5 mps 724 mmHg 83%
    10:00 -4°C° 0 mm 5 mps 725 mmHg 83%
    11:00 -2°C° 0 mm 5 mps 726 mmHg 82%
    12:00 -2°C° 0 mm 6 mps 726 mmHg 81%
    13:00 -2°C° 0 mm 6 mps 727 mmHg 83%
    14:00 -1°C° 0 mm 5 mps 727 mmHg 84%
    15:00 -1°C° 0 mm 5 mps 728 mmHg 86%
    16:00 -3°C° 0.1 mm 6 mps 728 mmHg 86%
    17:00 -3°C° 0.1 mm 6 mps 729 mmHg 86%
    18:00 -3°C° 0.1 mm 6 mps 730 mmHg 87%
    19:00 -3°C° 0 mm 6 mps 730 mmHg 87%
    20:00 -4°C° 0 mm 6 mps 731 mmHg 87%
    21:00 -4°C° 0 mm 6 mps 731 mmHg 87%
    22:00 -4°C° 0 mm 5 mps 732 mmHg 86%
    23:00 -5°C° 0 mm 5 mps 732 mmHg 86%

    16 December, Saturday

    Time Temperature Precipitation Wind Pressure Humidity
    00:00 -5°C° 0 mm 5 mps 733 mmHg 86%
    01:00 -5°C° 0 mm 5 mps 733 mmHg 85%
    02:00 -5°C° 0 mm 5 mps 733 mmHg 84%
    03:00 -5°C° 0 mm 5 mps 733 mmHg 83%
    04:00 -4°C° 0.1 mm 4 mps 733 mmHg 85%
    05:00 -3°C° 0.1 mm 4 mps 733 mmHg 87%
    06:00 -3°C° 0.1 mm 4 mps 733 mmHg 88%
    07:00 -3°C° 0 mm 4 mps 733 mmHg 89%
    08:00 -4°C° 0 mm 4 mps 733 mmHg 90%
    09:00 -4°C° 0 mm 4 mps 733 mmHg 91%
    10:00 -4°C° 0 mm 4 mps 734 mmHg 87%
    11:00 -3°C° 0 mm 4 mps 734 mmHg 84%
    12:00 -2°C° 0 mm 5 mps 734 mmHg 80%
    13:00 -3°C° 0 mm 4 mps 734 mmHg 81%
    14:00 -3°C° 0 mm 4 mps 734 mmHg 82%
    15:00 -4°C° 0 mm 4 mps 734 mmHg 83%
    16:00 -4°C° 0 mm 4 mps 734 mmHg 84%
    17:00 -5°C° 0 mm 4 mps 735 mmHg 85%
    18:00 -5°C° 0 mm 4 mps 735 mmHg 86%
    19:00 -5°C° 0 mm 4 mps 735 mmHg 85%
    20:00 -5°C° 0 mm 4 mps 736 mmHg 85%
    21:00 -5°C° 0 mm 4 mps 736 mmHg 84%
    22:00 -5°C° 0 mm 4 mps 736 mmHg 84%
    23:00 -5°C° 0 mm 4 mps 736 mmHg 84%
    Show more